• în România
  • Lista ţărilor
  • Pe 7 zile
  • Temperatura apei
  • Hartă satelitară
  • Meteo pe hartă
  • Widget-uri
  • user-avatar
    Intrare

    Meteo pe oră la Kurumoch

    Astăzi, 18 Octombrie, Joi

    Timp Temperatura Precipitaţii Vânt Presiune Umiditate
    00:00 +7°C° 0 mm 3 m/s 763 mmHg 78%
    01:00 +6°C° 0 mm 2 m/s 763 mmHg 79%
    02:00 +6°C° 0 mm 2 m/s 763 mmHg 80%
    03:00 +5°C° 0 mm 2 m/s 764 mmHg 82%
    04:00 +5°C° 0 mm 2 m/s 764 mmHg 82%
    05:00 +5°C° 0 mm 1 m/s 764 mmHg 83%
    06:00 +5°C° 0 mm 1 m/s 764 mmHg 84%
    07:00 +6°C° 0 mm 1 m/s 764 mmHg 79%
    08:00 +7°C° 0 mm 1 m/s 764 mmHg 73%
    09:00 +8°C° 0 mm 1 m/s 764 mmHg 68%
    10:00 +8°C° 0 mm 2 m/s 764 mmHg 63%
    11:00 +9°C° 0 mm 2 m/s 764 mmHg 58%
    12:00 +10°C° 0 mm 2 m/s 764 mmHg 53%
    13:00 +10°C° 0 mm 2 m/s 764 mmHg 52%
    14:00 +12°C° 0 mm 2 m/s 763 mmHg 52%
    15:00 +12°C° 0 mm 2 m/s 763 mmHg 52%
    16:00 +10°C° 0 mm 2 m/s 763 mmHg 56%
    17:00 +9°C° 0 mm 2 m/s 763 mmHg 60%
    18:00 +8°C° 0 mm 2 m/s 762 mmHg 64%
    19:00 +8°C° 0 mm 2 m/s 762 mmHg 65%
    20:00 +8°C° 0 mm 3 m/s 762 mmHg 67%
    21:00 +8°C° 0 mm 3 m/s 762 mmHg 68%
    22:00 +7°C° 0 mm 3 m/s 762 mmHg 70%
    23:00 +7°C° 0 mm 3 m/s 761 mmHg 71%

    Mâine, 19 Octombrie, Vineri

    Timp Temperatura Precipitaţii Vânt Presiune Umiditate
    00:00 +7°C° 0 mm 3 m/s 761 mmHg 73%
    01:00 +7°C° 0 mm 3 m/s 761 mmHg 75%
    02:00 +6°C° 0 mm 4 m/s 760 mmHg 77%
    03:00 +6°C° 0 mm 4 m/s 760 mmHg 79%
    04:00 +6°C° 0 mm 4 m/s 760 mmHg 81%
    05:00 +6°C° 0 mm 4 m/s 760 mmHg 83%
    06:00 +6°C° 0 mm 4 m/s 759 mmHg 85%
    07:00 +7°C° 0 mm 4 m/s 759 mmHg 83%
    08:00 +8°C° 0 mm 4 m/s 759 mmHg 80%
    09:00 +9°C° 0 mm 5 m/s 759 mmHg 78%
    10:00 +12°C° 0 mm 5 m/s 759 mmHg 73%
    11:00 +13°C° 0 mm 5 m/s 758 mmHg 69%
    12:00 +14°C° 0 mm 5 m/s 758 mmHg 65%
    13:00 +15°C° 0 mm 5 m/s 758 mmHg 64%
    14:00 +15°C° 0 mm 5 m/s 758 mmHg 64%
    15:00 +15°C° 0 mm 5 m/s 757 mmHg 63%
    16:00 +15°C° 0 mm 5 m/s 757 mmHg 66%
    17:00 +14°C° 0 mm 5 m/s 757 mmHg 70%
    18:00 +13°C° 0 mm 4 m/s 757 mmHg 73%
    19:00 +12°C° 0 mm 4 m/s 757 mmHg 73%
    20:00 +12°C° 0 mm 4 m/s 757 mmHg 74%
    21:00 +12°C° 0 mm 4 m/s 757 mmHg 74%
    22:00 +11°C° 0 mm 4 m/s 757 mmHg 75%
    23:00 +11°C° 0 mm 4 m/s 756 mmHg 76%

    Poimâine, 20 Octombrie, Sâmbătă

    Timp Temperatura Precipitaţii Vânt Presiune Umiditate
    00:00 +11°C° 0 mm 4 m/s 756 mmHg 77%
    01:00 +10°C° 0 mm 4 m/s 756 mmHg 77%
    02:00 +10°C° 0 mm 4 m/s 756 mmHg 78%
    03:00 +10°C° 0 mm 4 m/s 755 mmHg 78%
    04:00 +10°C° 0 mm 4 m/s 755 mmHg 78%
    05:00 +8°C° 0 mm 4 m/s 755 mmHg 77%
    06:00 +8°C° 0 mm 4 m/s 755 mmHg 76%
    07:00 +9°C° 0 mm 5 m/s 755 mmHg 74%
    08:00 +9°C° 0 mm 5 m/s 755 mmHg 71%
    09:00 +10°C° 0 mm 5 m/s 755 mmHg 68%
    10:00 +10°C° 0.1 mm 5 m/s 755 mmHg 70%
    11:00 +12°C° 0.1 mm 4 m/s 755 mmHg 72%
    12:00 +12°C° 0.1 mm 4 m/s 755 mmHg 74%
    13:00 +11°C° 0.2 mm 4 m/s 755 mmHg 75%
    14:00 +11°C° 0.2 mm 4 m/s 755 mmHg 76%
    15:00 +11°C° 0.2 mm 3 m/s 755 mmHg 78%
    16:00 +10°C° 0 mm 3 m/s 755 mmHg 77%
    17:00 +9°C° 0 mm 3 m/s 756 mmHg 77%
    18:00 +8°C° 0 mm 3 m/s 756 mmHg 77%
    19:00 +8°C° 0 mm 3 m/s 757 mmHg 77%
    20:00 +7°C° 0 mm 2 m/s 757 mmHg 77%
    21:00 +7°C° 0 mm 2 m/s 757 mmHg 78%
    22:00 +6°C° 0 mm 2 m/s 758 mmHg 79%
    23:00 +6°C° 0 mm 2 m/s 758 mmHg 80%

    21 Octombrie, Duminică

    Timp Temperatura Precipitaţii Vânt Presiune Umiditate
    00:00 +6°C° 0 mm 2 m/s 758 mmHg 81%
    01:00 +5°C° 0 mm 2 m/s 758 mmHg 84%
    02:00 +5°C° 0 mm 2 m/s 759 mmHg 86%
    03:00 +5°C° 0 mm 2 m/s 759 mmHg 88%
    04:00 +4°C° 0 mm 2 m/s 759 mmHg 89%
    05:00 +4°C° 0 mm 2 m/s 759 mmHg 90%
    06:00 +4°C° 0 mm 2 m/s 760 mmHg 91%
    07:00 +5°C° 0 mm 2 m/s 760 mmHg 87%
    08:00 +6°C° 0 mm 2 m/s 761 mmHg 83%
    09:00 +6°C° 0 mm 2 m/s 761 mmHg 78%
    10:00 +7°C° 0 mm 2 m/s 761 mmHg 73%
    11:00 +8°C° 0 mm 2 m/s 761 mmHg 67%
    12:00 +9°C° 0 mm 2 m/s 762 mmHg 61%
    13:00 +9°C° 0 mm 2 m/s 762 mmHg 61%
    14:00 +9°C° 0 mm 2 m/s 762 mmHg 61%
    15:00 +9°C° 0 mm 2 m/s 762 mmHg 61%
    16:00 +8°C° 0 mm 2 m/s 762 mmHg 65%
    17:00 +7°C° 0 mm 2 m/s 762 mmHg 70%
    18:00 +6°C° 0 mm 2 m/s 763 mmHg 74%
    19:00 +7°C° 0 mm 1 m/s 763 mmHg 76%
    20:00 +7°C° 0 mm 1 m/s 763 mmHg 78%
    21:00 +7°C° 0 mm 1 m/s 763 mmHg 79%
    22:00 +6°C° 0 mm 1 m/s 764 mmHg 80%
    23:00 +6°C° 0 mm 1 m/s 764 mmHg 80%

    22 Octombrie, Luni

    Timp Temperatura Precipitaţii Vânt Presiune Umiditate
    00:00 +6°C° 0 mm 1 m/s 764 mmHg 80%
    01:00 +6°C° 0 mm 1 m/s 764 mmHg 81%
    02:00 +5°C° 0 mm 1 m/s 764 mmHg 83%
    03:00 +5°C° 0 mm 1 m/s 764 mmHg 84%
    04:00 +5°C° 0 mm 1 m/s 764 mmHg 85%
    05:00 +4°C° 0 mm 1 m/s 764 mmHg 86%
    06:00 +4°C° 0 mm 1 m/s 765 mmHg 87%
    07:00 +5°C° 0 mm 1 m/s 765 mmHg 82%
    08:00 +6°C° 0 mm 1 m/s 765 mmHg 77%
    09:00 +7°C° 0 mm 1 m/s 765 mmHg 72%
    10:00 +7°C° 0 mm 0 m/s 765 mmHg 67%
    11:00 +8°C° 0 mm 0 m/s 765 mmHg 63%
    12:00 +8°C° 0 mm 0 m/s 765 mmHg 58%
    13:00 +8°C° 0 mm 0 m/s 765 mmHg 57%
    14:00 +8°C° 0 mm 0 m/s 764 mmHg 57%
    15:00 +10°C° 0 mm 1 m/s 764 mmHg 56%
    16:00 +9°C° 0 mm 1 m/s 764 mmHg 60%
    17:00 +8°C° 0 mm 1 m/s 764 mmHg 64%
    18:00 +7°C° 0 mm 1 m/s 764 mmHg 68%
    19:00 +7°C° 0 mm 1 m/s 764 mmHg 69%
    20:00 +6°C° 0 mm 1 m/s 764 mmHg 71%
    21:00 +5°C° 0 mm 2 m/s 763 mmHg 72%
    22:00 +5°C° 0 mm 2 m/s 763 mmHg 73%
    23:00 +4°C° 0 mm 2 m/s 763 mmHg 74%

    23 Octombrie, Marţi

    Timp Temperatura Precipitaţii Vânt Presiune Umiditate
    00:00 +4°C° 0 mm 2 m/s 763 mmHg 75%
    01:00 +4°C° 0 mm 2 m/s 763 mmHg 76%
    02:00 +3°C° 0 mm 2 m/s 763 mmHg 76%
    03:00 +3°C° 0 mm 2 m/s 763 mmHg 77%
    04:00 +3°C° 0 mm 2 m/s 762 mmHg 78%
    05:00 +3°C° 0 mm 2 m/s 762 mmHg 79%
    06:00 +2°C° 0 mm 3 m/s 762 mmHg 79%
    07:00 +3°C° 0 mm 3 m/s 762 mmHg 75%
    08:00 +4°C° 0 mm 3 m/s 762 mmHg 70%
    09:00 +5°C° 0 mm 4 m/s 762 mmHg 65%
    10:00 +6°C° 0 mm 4 m/s 761 mmHg 60%
    11:00 +7°C° 0 mm 4 m/s 761 mmHg 55%
    12:00 +8°C° 0 mm 4 m/s 761 mmHg 51%
    13:00 +8°C° 0 mm 4 m/s 760 mmHg 50%
    14:00 +8°C° 0 mm 4 m/s 760 mmHg 50%
    15:00 +10°C° 0 mm 3 m/s 760 mmHg 49%
    16:00 +9°C° 0 mm 3 m/s 760 mmHg 51%
    17:00 +8°C° 0 mm 3 m/s 760 mmHg 53%
    18:00 +7°C° 0 mm 2 m/s 760 mmHg 55%
    19:00 +7°C° 0.1 mm 2 m/s 759 mmHg 57%
    20:00 +7°C° 0.1 mm 2 m/s 759 mmHg 58%
    21:00 +7°C° 0.1 mm 3 m/s 759 mmHg 60%
    22:00 +7°C° 0 mm 2 m/s 759 mmHg 60%
    23:00 +7°C° 0 mm 2 m/s 759 mmHg 60%
    Arată mai mult